Home   Weather   Zabrze   Past weeks

Flag for Poland Past Weather in Zabrze, Poland — Yesterday and Last 2 Weeks

Now
18 °F

Ice fog.


Feels Like: 9 °F
Forecast: 8 / 19 °F
Wind: 6 mph from Southeast

Location: Katowice Airport

Current Time: Jan 18, 2017 at 9:27:18 pm

Latest Report: Jan 18, 2017 at 9:00 pm


Visibility: 3 mi

Pressure: 30.69 "Hg

Humidity: 93%

Dew Point: 16 °F

Location of ZabrzeLocation

Past Weather in Zabrze — Graph

°F

Zabrze Temperature Yesterday

Maximum temperature yesterday: 28 °F (at 11:30 am)
Minimum temperature yesterday: 23 °F (at 12:00 am)
Average temperature yesterday: 26 °F

High & Low Weather Summary for the Past Weeks

 TemperatureHumidityPressure
High39 °F (Jan 13, 11:30 am)100% (Jan 4, 10:30 am)30.69 "Hg (Jan 4, 10:30 am)
Low-20 °F (Jan 7, 7:00 am)46% (Jan 9, 2:00 pm)29.30 "Hg (Jan 13, 2:00 pm)
Average19 °F82%30.04 "Hg
* Reported Jan 3 8:00 pm — Jan 18 8:00 pm, Zabrze, Weather by CustomWeather, © 2017

Note: Actual official high and low records may vary slightly from our data, if they occured in-between our weather recording intervals... More about our weather records

Advertising

Zabrze Weather History for the Previous 24 Hours

Scroll right to see more
 ConditionsComfort  
Time TempWeatherWind HumidityBarometerVisibility
8:00 pm
Wed, Jan 18
19 °FIce fog.9 mph86%30.69 "Hg2 mi
7:30 pm19 °FIce fog.7 mph86%30.69 "Hg3 mi
7:00 pm19 °FIce fog.8 mph86%30.69 "Hg3 mi
6:30 pm19 °FIce fog.8 mph86%30.66 "Hg3 mi
6:00 pm19 °FIce fog.7 mph86%30.69 "Hg3 mi
5:30 pm19 °FIce fog.8 mph79%30.69 "Hg3 mi
5:00 pm19 °FIce fog.7 mph79%30.69 "Hg3 mi
4:30 pm19 °FIce fog.7 mph86%30.69 "Hg3 mi
4:00 pm19 °FIce fog.8 mph79%30.69 "Hg3 mi
3:30 pm19 °FMore clouds than sun.8 mph79%30.66 "Hg4 mi
3:00 pm19 °FIce fog.9 mph86%30.66 "Hg3 mi
2:30 pm19 °FOvercast.10 mph79%30.66 "Hg4 mi
2:00 pm19 °FOvercast.10 mph79%30.66 "Hg5 mi
1:30 pm21 °FOvercast.9 mph74%30.66 "Hg6 mi
1:00 pm19 °FOvercast.9 mph86%30.66 "Hg5 mi
12:30 pm19 °FOvercast.9 mph86%30.66 "Hg5 mi
12:00 pm19 °FOvercast.8 mph79%30.66 "Hg5 mi
11:30 am19 °FPartly sunny.10 mph86%30.66 "Hg5 mi
11:00 am19 °FLow clouds.8 mph86%30.66 "Hg4 mi
10:30 am19 °FLow clouds.10 mph86%30.66 "Hg4 mi
10:00 am19 °FLow clouds.7 mph86%30.66 "Hg4 mi
9:30 am19 °FLow clouds.9 mph86%30.66 "Hg4 mi
9:00 am19 °FLow clouds.8 mph86%30.66 "Hg4 mi
8:30 am19 °FLow clouds.7 mph86%30.63 "Hg4 mi
8:00 am21 °FLow clouds.8 mph80%30.63 "Hg4 mi
7:30 am21 °FLow clouds.9 mph86%30.63 "Hg4 mi
7:00 am21 °FLow clouds.7 mph86%30.63 "Hg4 mi
6:30 am21 °FLow clouds.8 mph86%30.60 "Hg4 mi
6:00 am21 °FLow clouds.8 mph86%30.60 "Hg4 mi
5:30 am23 °FLow clouds.8 mph80%30.60 "Hg4 mi
5:00 am23 °FLow clouds.8 mph80%30.60 "Hg4 mi
4:30 am23 °FIce fog.10 mph86%30.60 "Hg3 mi
4:00 am23 °FIce fog.9 mph86%30.60 "Hg3 mi
3:30 am23 °FLow clouds.8 mph86%30.60 "Hg4 mi
3:00 am23 °FLow clouds.9 mph93%30.60 "Hg4 mi
2:30 am23 °FIce fog.8 mph93%30.60 "Hg3 mi
2:00 am23 °FIce fog.9 mph93%30.60 "Hg2 mi
1:30 am23 °FIce fog.8 mph93%30.60 "Hg2 mi
1:00 am25 °FIce fog.8 mph86%30.60 "Hg2 mi
12:30 am25 °FIce fog.9 mph93%30.57 "Hg3 mi
12:00 am25 °FIce fog.7 mph93%30.57 "Hg3 mi
11:30 pm
Tue, Jan 17
25 °FIce fog.6 mph93%30.57 "Hg2 mi
11:00 pm27 °FIce fog.6 mph86%30.57 "Hg3 mi
10:30 pm25 °FIce fog.3 mph93%30.57 "Hg3 mi
10:00 pm25 °FIce fog.5 mph93%30.57 "Hg2 mi
9:30 pm25 °FIce fog.6 mph93%30.57 "Hg2 mi
9:00 pm25 °FIce fog.5 mph93%30.54 "Hg2 mi
Weather by CustomWeather, © 2017

See weather overviewHow to use our weather pages